Coatesville, PA

11:15 AM EDT on October 18, 2017 (GMT -0400)
Chester County Carlson

Weather History for KMQS - November, 2014

Change the Weather History Date:

Sunday, November 2, 2014

  Actual Average (KILG) Record (KILG)
Temperature  
Mean Temperature 40 °F -  
Max Temperature 44 °F 65 °F 81 °F (1950)
Min Temperature 37 °F 45 °F 26 °F (1976)
Degree Days  
Heating Degree Days 24    
Moisture  
Dew Point 25 °F    
Average Humidity 55    
Maximum Humidity 75    
Minimum Humidity 36    
Precipitation  
Precipitation 0.00 in - - ()
Sea Level Pressure  
Sea Level Pressure 29.98 in    
Wind  
Wind Speed 18 mph (NNW)    
Max Wind Speed 29 mph    
Max Gust Speed 41 mph    
Visibility 10 miles    
Events      
Averages and records for this station are not official NWS values.
T = Trace of Precipitation, MM = Missing Value Source: NWS Daily Summary

Daily Weather History Graph

Daily Weather History Graph

Search for Another Location

Airport or City:

Trip Planner

Search our weather history database for the weather conditions in past years. The results will help you decide how hot, cold, wet, or windy it might be!

Date:

Astronomy

Nov. 02, 2014 Rise Set
Actual Time 6:33 AM EST 4:59 PM EST
Civil Twilight 6:05 AM EST 5:28 PM EST
Nautical Twilight 5:33 AM EST 6:00 PM EST
Astronomical Twilight 5:01 AM EST 6:31 PM EST
Moon 2:30 PM EST (11/2) 1:33 AM EST (11/2)
Length of Visible Light 11h 22m
Length of Day
10h 26m
Waxing Gibbous, 78% of the Moon is Illuminated
Nov 2
Waxing Gibbous
Nov 6
Full
Nov 14
Last Quarter
Nov 22
New
Nov 29
First Quarter

Hourly Weather History & Observations

Time (EST) Temp. Windchill Dew Point Humidity Pressure Visibility Wind Dir Wind Speed Gust Speed Precip Events Conditions
12:15 AM 41.0 °F 32.5 °F 32.0 °F 70% 29.85 in 10.0 mi North 17.3 mph 26.5 mph N/A   Partly Cloudy
12:35 AM 41.0 °F 31.1 °F 32.0 °F 70% 29.85 in 10.0 mi North 23.0 mph 29.9 mph N/A   Partly Cloudy
12:55 AM 41.0 °F 31.9 °F 32.0 °F 70% 29.85 in 10.0 mi North 19.6 mph 25.3 mph N/A   Partly Cloudy
1:15 AM 39.2 °F 30.5 °F 32.0 °F 75% 29.85 in 10.0 mi NNW 16.1 mph 23.0 mph N/A   Partly Cloudy
1:35 AM 39.2 °F 30.5 °F 32.0 °F 75% 29.84 in 10.0 mi NNW 16.1 mph 27.6 mph N/A   Partly Cloudy
1:55 AM 39.2 °F 30.8 °F 32.0 °F 75% 29.85 in 10.0 mi NNW 15.0 mph 21.9 mph N/A   Partly Cloudy
1:15 AM 39.2 °F 30.5 °F 32.0 °F 75% 29.86 in 10.0 mi North 16.1 mph 21.9 mph N/A   Partly Cloudy
1:35 AM 39.2 °F 31.2 °F 32.0 °F 75% 29.85 in 10.0 mi NNW 13.8 mph 21.9 mph N/A   Clear
1:55 AM 39.2 °F 30.2 °F 32.0 °F 75% 29.85 in 10.0 mi North 17.3 mph - N/A   Clear
2:15 AM 39.2 °F 30.5 °F 32.0 °F 75% 29.85 in 10.0 mi NNW 16.1 mph 27.6 mph N/A   Mostly Cloudy
2:35 AM 39.2 °F 30.2 °F 32.0 °F 75% 29.85 in 10.0 mi NNW 17.3 mph 26.5 mph N/A   Scattered Clouds
2:55 AM 39.2 °F 30.8 °F 32.0 °F 75% 29.84 in 10.0 mi NNW 15.0 mph 25.3 mph N/A   Clear
3:15 AM 39.2 °F 30.8 °F 32.0 °F 75% 29.85 in 10.0 mi NNW 15.0 mph 21.9 mph N/A   Partly Cloudy
3:35 AM 39.2 °F 30.8 °F 32.0 °F 75% 29.85 in 10.0 mi NNW 15.0 mph 19.6 mph N/A   Scattered Clouds
3:55 AM 39.2 °F 30.8 °F 32.0 °F 75% 29.86 in 10.0 mi North 15.0 mph 20.7 mph N/A   Scattered Clouds
4:15 AM 39.2 °F 32.0 °F 32.0 °F 75% 29.86 in 10.0 mi NNW 11.5 mph 17.3 mph N/A   Partly Cloudy
4:35 AM 39.2 °F 30.8 °F 32.0 °F 75% 29.86 in 10.0 mi North 15.0 mph 25.3 mph N/A   Scattered Clouds
4:55 AM 39.2 °F 29.8 °F 32.0 °F 75% 29.87 in 10.0 mi NNW 18.4 mph 24.2 mph N/A   Scattered Clouds
5:15 AM 39.2 °F 30.8 °F 32.0 °F 75% 29.88 in 10.0 mi NNW 15.0 mph 23.0 mph N/A   Mostly Cloudy
5:35 AM 39.2 °F 30.8 °F 30.2 °F 70% 29.89 in 10.0 mi NNW 15.0 mph 29.9 mph N/A   Overcast
5:55 AM 39.2 °F 29.6 °F 30.2 °F 70% 29.89 in 10.0 mi NNW 19.6 mph 27.6 mph N/A   Mostly Cloudy
6:15 AM 39.2 °F 30.2 °F 30.2 °F 70% 29.89 in 10.0 mi NNW 17.3 mph 27.6 mph N/A   Mostly Cloudy
6:35 AM 39.2 °F 29.3 °F 30.2 °F 70% 29.90 in 10.0 mi NNW 20.7 mph 28.8 mph N/A   Scattered Clouds
6:55 AM 39.2 °F 29.0 °F 28.4 °F 65% 29.92 in 10.0 mi NNW 21.9 mph 32.2 mph N/A   Clear
7:15 AM 39.2 °F 30.2 °F 28.4 °F 65% 29.93 in 10.0 mi NNW 17.3 mph 28.8 mph N/A   Clear
7:35 AM 39.2 °F 29.8 °F 26.6 °F 61% 29.94 in 10.0 mi NNW 18.4 mph 36.8 mph N/A   Partly Cloudy
7:55 AM 39.2 °F 29.8 °F 26.6 °F 61% 29.95 in 10.0 mi NNW 18.4 mph 29.9 mph N/A   Partly Cloudy
8:15 AM 39.2 °F 27.8 °F 26.6 °F 61% 29.97 in 10.0 mi NNW 27.6 mph 35.7 mph N/A   Scattered Clouds
8:35 AM 39.2 °F 29.3 °F 26.6 °F 61% 29.98 in 10.0 mi NNW 20.7 mph 34.5 mph N/A   Mostly Cloudy
8:55 AM 39.2 °F 29.3 °F 26.6 °F 61% 29.99 in 10.0 mi NNW 20.7 mph 35.7 mph N/A   Overcast
9:15 AM 41.0 °F 32.5 °F 26.6 °F 57% 30.00 in 10.0 mi North 17.3 mph 33.4 mph N/A   Overcast
9:35 AM 41.0 °F 31.4 °F 26.6 °F 57% 29.99 in 10.0 mi NNW 21.9 mph 31.1 mph N/A   Overcast
9:55 AM 41.0 °F 32.2 °F 26.6 °F 57% 30.00 in 10.0 mi NNW 18.4 mph 27.6 mph N/A   Overcast
10:15 AM 41.0 °F 32.8 °F 26.6 °F 57% 30.00 in 10.0 mi NNW 16.1 mph 29.9 mph N/A   Mostly Cloudy
10:35 AM 41.0 °F 31.4 °F 26.6 °F 57% 30.01 in 10.0 mi NNW 21.9 mph 29.9 mph N/A   Mostly Cloudy
10:55 AM 41.0 °F 31.9 °F 28.4 °F 61% 30.00 in 10.0 mi NW 19.6 mph 31.1 mph N/A   Mostly Cloudy
11:15 AM 42.8 °F 32.7 °F 26.6 °F 53% 30.00 in 10.0 mi NNW 27.6 mph 39.1 mph N/A   Scattered Clouds
11:35 AM 42.8 °F 33.1 °F 26.6 °F 53% 30.00 in 10.0 mi NNW 25.3 mph 36.8 mph N/A   Partly Cloudy
11:55 AM 42.8 °F 32.5 °F 24.8 °F 49% 29.99 in 10.0 mi NW 28.8 mph 40.3 mph N/A   Clear
12:15 PM 44.6 °F 35.3 °F 24.8 °F 46% 29.99 in 10.0 mi North 26.5 mph 35.7 mph N/A   Clear
12:35 PM 44.6 °F 36.1 °F 24.8 °F 46% 29.99 in 10.0 mi NNW 21.9 mph 41.4 mph N/A   Clear
12:55 PM 44.6 °F 36.6 °F 24.8 °F 46% 29.99 in 10.0 mi NNW 19.6 mph 35.7 mph N/A   Clear
1:15 PM 44.6 °F 36.4 °F 26.6 °F 49% 29.99 in 10.0 mi NW 20.7 mph 27.6 mph N/A   Clear
1:35 PM 44.6 °F 36.9 °F 24.8 °F 46% 29.99 in 10.0 mi NNW 18.4 mph 32.2 mph N/A   Clear
1:55 PM 44.6 °F 35.5 °F 23.0 °F 43% 30.00 in 10.0 mi NW 25.3 mph 34.5 mph N/A   Clear
2:15 PM 44.6 °F 35.9 °F 23.0 °F 43% 30.00 in 10.0 mi NW 23.0 mph 31.1 mph N/A   Clear
2:35 PM 44.6 °F 36.1 °F 23.0 °F 43% 30.00 in 10.0 mi NNW 21.9 mph 32.2 mph N/A   Clear
2:55 PM 44.6 °F 37.4 °F 23.0 °F 43% 30.01 in 10.0 mi NNW 16.1 mph 28.8 mph N/A   Clear
3:15 PM 44.6 °F 36.6 °F 21.2 °F 39% 30.01 in 10.0 mi NW 19.6 mph 26.5 mph N/A   Clear
3:35 PM 44.6 °F 37.8 °F 21.2 °F 39% 30.02 in 10.0 mi NNW 15.0 mph 28.8 mph N/A   Clear
3:55 PM 44.6 °F 37.2 °F 19.4 °F 37% 30.02 in 10.0 mi NNW 17.3 mph 25.3 mph N/A   Clear
4:15 PM 44.6 °F 37.2 °F 19.4 °F 37% 30.03 in 10.0 mi NNW 17.3 mph 25.3 mph N/A   Clear
4:35 PM 42.8 °F 35.1 °F 19.4 °F 39% 30.04 in 10.0 mi NW 16.1 mph 26.5 mph N/A   Clear
4:55 PM 42.8 °F 35.1 °F 19.4 °F 39% 30.05 in 10.0 mi NNW 16.1 mph 23.0 mph N/A   Clear
5:15 PM 41.0 °F 34.3 °F 19.4 °F 42% 30.06 in 10.0 mi NNW 11.5 mph 20.7 mph N/A   Clear
5:35 PM 41.0 °F 33.1 °F 17.6 °F 39% 30.07 in 10.0 mi NNW 15.0 mph 25.3 mph N/A   Clear
5:55 PM 41.0 °F 32.8 °F 17.6 °F 39% 30.08 in 10.0 mi NNW 16.1 mph 24.2 mph N/A   Clear
6:15 PM 41.0 °F 32.2 °F 17.6 °F 39% 30.09 in 10.0 mi NNW 18.4 mph 23.0 mph N/A   Clear
6:35 PM 41.0 °F 32.5 °F 17.6 °F 39% 30.09 in 10.0 mi NNW 17.3 mph 25.3 mph N/A   Clear
6:55 PM 41.0 °F 32.8 °F 15.8 °F 36% 30.10 in 10.0 mi NNW 16.1 mph 23.0 mph N/A   Clear
7:15 PM 41.0 °F 33.5 °F 15.8 °F 36% 30.10 in 10.0 mi NW 13.8 mph 23.0 mph N/A   Clear
7:35 PM 41.0 °F 33.5 °F 15.8 °F 36% 30.11 in 10.0 mi NW 13.8 mph - N/A   Clear
7:55 PM 39.2 °F 32.0 °F 15.8 °F 39% 30.12 in 10.0 mi NNW 11.5 mph 20.7 mph N/A   Clear
8:15 PM 39.2 °F 33.0 °F 15.8 °F 39% 30.12 in 10.0 mi NW 9.2 mph 18.4 mph N/A   Clear
8:35 PM 39.2 °F 29.8 °F 15.8 °F 39% 30.13 in 10.0 mi NW 18.4 mph - N/A   Clear
8:55 PM 39.2 °F 31.2 °F 15.8 °F 39% 30.14 in 10.0 mi NW 13.8 mph 23.0 mph N/A   Clear
9:15 PM 39.2 °F 29.8 °F 15.8 °F 39% 30.14 in 10.0 mi NW 18.4 mph 23.0 mph N/A   Clear
9:35 PM 39.2 °F 31.2 °F 15.8 °F 39% 30.15 in 10.0 mi NW 13.8 mph - N/A   Clear
9:55 PM 37.4 °F 32.1 °F 15.8 °F 41% 30.15 in 10.0 mi WNW 6.9 mph - N/A   Clear
10:15 PM 37.4 °F 29.8 °F 17.6 °F 45% 30.15 in 10.0 mi NW 11.5 mph - N/A   Clear
10:35 PM 39.2 °F 31.6 °F 15.8 °F 39% 30.15 in 10.0 mi NW 12.7 mph - N/A   Clear
10:55 PM 39.2 °F 31.6 °F 15.8 °F 39% 30.15 in 10.0 mi NW 12.7 mph 19.6 mph N/A   Clear